Regional Weather Roundup
Issued by NWS Nashville, TN

Home | Current Version | Previous Version | Text Only | Print | Product List | Glossary On
Versions: 1 2 3 4 5 6 7 8 9 10 11 12 13 14 15 16 17 18 19 20 21 22 23 24 25 26 27 28 29 30 31 32 33 34 35 36 37 38 39 40 41 42 43 44 45 46 47 48 49 50
000
ASUS44 KOHX 110010
RWROHX
MIDDLE TENNESSEE HOURLY WEATHER ROUNDUP
NATIONAL WEATHER SERVICE NASHVILLE TN
600 PM CST SAT DEC 10 2016

NOTE: "FAIR" INDICATES FEW OR NO CLOUDS BELOW 12,000 FEET WITH
NO SIGNIFICANT WEATHER AND/OR OBSTRUCTIONS TO VISIBILITY.

* THESE REPORTS ARE NOT UNDER NWS QUALITY CONTROL AND MAY NOT
  REPORT WEATHER SUCH AS PRECIPITATION AND FOG.


TNZ005>011-023>034-057-059-062>066-078-080-110100
...NORTHERN MIDDLE TENNESSEE...

CITY           SKY/WX    TMP DP  RH WIND       PRES   REMARKS
CLARKSVILLE    PTCLDY    30  15  53 NE3       30.44F
CROSSVILLE     CLEAR     30  12  47 CALM      30.40F
GALLATIN       CLEAR     30  18  59 CALM      30.48S
LEBANON        CLEAR     28  16  61 CALM      30.43F
NASHVILLE      PTCLDY    36  12  37 CALM      30.45F
PORTLAND       CLEAR     32  14  47 CALM      30.45R
SMYRNA         CLEAR     29  19  66 CALM      30.46F
SPRINGFIELD    PTCLDY    32  16  51 CALM      30.44S
WEST NASHVILLE CLEAR     30  14  51 NE5       30.45S WCI  25
$$
TNZ056-058-060-061-075>077-079-093>097-110100
...SOUTHERN MIDDLE TENNESSEE...

CITY           SKY/WX    TMP DP  RH WIND       PRES   REMARKS
COLUMBIA       CLEAR     32  18  55 SE3       30.41F
FAYETTEVILLE   CLEAR     34  18  51 CALM      30.42R
MCMINNVILLE    CLEAR     28  18  64 CALM        N/A
SHELBYVILLE    CLEAR     30  19  64 CALM      30.44F
TULLAHOMA      CLEAR     32  14  47 CALM      30.41F
WINCHESTER     CLEAR     28  18  64 CALM      30.43S
$$


...KEY TO REMARKS...
VSB - VISIBILITY IN MILES
WCI - WIND CHILL INDEX
HX  - HEAT INDEX




USA.gov is the U.S. government's official web portal to all federal, state and local government web resources and services.